Theta_e
338 327 326 330 330 325 326 326 332 331 330 328 328 327 329 329 329 331 330 331 332 335
331 330 331 333 332 328 330 325 329 329 328 327 327 327 327 325 328 327 324 328 327 328
330 330 331 331 329 329 330 328 327 325 325 324 324 325 325 322 323 323 325 324 325 324
328 329 330 329 327 327 328 325 323 321 320 319 320 322 322 322 320 319 323 325 323 322
329 329 329 327 326 326 323 323 319 317 316 315 315 317 315 315 318 318 318 318 320 321
327 327 327 326 324 322 319 317 316 315 314 313 313 314 315 314 315 315 314 314 314 316
326 325 325 324 322 320 318 316 314 314 313 313 312 312 313 312 311 310 309 310 311 313
324 322 321 321 320 318 316 314 314 312 312 312 312 309 310 310 309 308 307 307 308 309
319 316 319 319 317 316 314 313 312 311 310 310 310 301 303 305 306 306 306 305 307 310
315 314 315 314 313 313 313 313 309 308 308 308 309 301 300 301 304 304 304 306 306 307
312 311 311 311 311 313 313 309 306 306 306 307 307 301 299 300 304 304 305 307 309 309
308 308 308 308 309 310 309 306 304 304 304 304 304 301 300 299 302 302 303 305 308 307
307 307 306 306 306 308 306 303 303 302 302 301 300 300 300 299 301 300 300 303 305 301
305 304 305 304 305 303 302 301 299 299 299 301 302 303 300 298 300 300 299 298 299 299
Wind_Speed
2 6 6 8 5 6 5 4 4 4 4 5 4 5 5 4 5 6 5 6 7 2
7 8 6 6 5 5 5 5 4 4 4 3 5 5 7 5 4 4 5 6 7 5
5 6 5 5 6 5 4 5 5 5 5 6 6 5 4 6 8 8 2 4 7 8
5 6 5 4 5 4 5 5 6 7 7 7 7 6 6 5 7 9 7 6 6 8
4 5 5 4 5 5 5 6 7 8 8 8 7 6 7 9 8 7 8 10 11 6
5 3 4 4 4 5 6 7 7 7 8 9 8 8 6 5 7 10 9 9 11 10
6 4 3 2 3 4 5 7 7 7 8 9 9 9 7 7 6 7 9 10 10 10
6 3 1 2 3 4 5 6 7 8 9 8 8 6 4 4 6 7 8 9 10 11
3 1 2 3 4 4 5 6 7 9 10 9 8 7 5 4 5 8 10 10 9 9
2 3 3 4 4 4 4 5 7 9 9 10 10 6 3 3 5 8 10 10 9 9
4 5 6 6 6 4 4 4 7 8 9 9 6 5 2 3 8 10 11 10 9 9
7 7 7 7 7 6 5 5 7 9 10 8 9 10 6 4 8 10 10 10 9 7
8 8 9 9 9 7 5 6 7 8 9 13 10 11 12 7 5 8 7 9 8 13
7 7 8 8 7 8 8 9 11 11 11 11 10 11 7 9 4 7 6 7 8 4
Wind_Direction
45 94 78 38 43 49 39 80 30 58 29 348 358 340 348 310 329 332 325 328 339 332
74 67 69 53 37 52 36 23 34 18 2 353 336 3 355 324 306 312 330 329 350 337
103 84 80 81 75 51 36 21 350 358 346 336 335 343 5 334 328 315 301 329 351 356
109 99 85 80 60 40 20 7 352 345 339 335 330 342 336 318 301 339 335 354 4 353
121 113 81 56 45 12 6 360 352 344 336 331 332 345 329 323 330 329 347 346 347 350
116 104 79 43 23 5 354 350 341 336 333 330 328 321 322 315 353 1 350 344 342 333
132 91 61 14 2 348 345 331 332 330 329 328 323 317 316 30 6 346 334 323 316 313
108 134 250 348 337 334 333 328 326 325 320 316 317 324 25 356 333 331 316 305 301 296
109 276 305 329 319 336 329 337 330 318 320 317 310 111 95 22 344 321 312 303 295 295
250 293 318 330 324 318 326 334 339 321 317 320 312 136 94 40 333 316 290 281 276 279
324 347 342 322 310 317 307 340 319 317 312 304 334 151 146 298 312 310 294 289 288 274
351 333 329 315 324 327 350 337 316 303 308 328 324 328 311 305 314 295 307 297 299 339
346 346 342 336 323 325 335 307 298 305 305 302 298 296 284 216 285 303 305 316 318 62
355 335 308 324 328 330 324 305 297 296 297 293 281 280 256 199 260 291 322 313 302 89